User: anonymous   Login
Location: Unspecified
(0.0000°N, 0.0000°E)
Time: 14:49:08
(UTC+00:00)
Language:

COSMOS 2390 - Orbit

View from above orbital plane
View from above orbital plane
View from above satellite
View from above satellite

Ground track
Ground track

The orbit data is extracted from the following two-line orbital elements,

1 27464U 02036A   18267.68334464 +.00000010 +00000-0 -15581-5 0  9993
2 27464 082.4843 309.6805 0024075 313.8969 194.0244 12.44568033736705
Epoch (UTC): 24 September 2018 16:24:00
Eccentricity: 0.0024075
inclination: 82.4843°
perigee height: 1468 km
apogee height: 1506 km
right ascension of ascending node: 309.6805°
argument of perigee: 313.8969°
revolutions per day: 12.44568033
mean anomaly at epoch: 194.0244°
orbit number at epoch: 73670

The dashed part of the orbit path shows where the satellite is in the earth's shadow,  

DLR